Location: Newark
(45.8667°N, 9.7333°E)
Time: 11:11:13
(UTC+00:00)

Vanguard 3 - Pass Details

Date: 25 January 2020
Orbit: 508 x 3263 km, 33.3° (Epoch: 22 February)

Event Time Altitude Azimuth Distance (km) Brightness Sun altitude
Rises 13:41:35 0° 186° (S) 6,546 12.9 18.9°
Reaches altitude 10° 13:47:57 10° 171° (S) 5,886 12.4 18.3°
Maximum altitude 13:58:52 19° 135° (SE) 5,465 11.6 17.2°
Drops below altitude 10° 14:09:59 10° 100° (E) 6,080 11.4 16.1°
Sets 14:16:36 0° 85° (E) 6,842 11.5 15.3°
